This is the latest recevied weather packets stored in our database for station/object W4CKA. If no packets are shown the sender has not sent any weather packets the latest 10 day(s).
| Time | Temp. | Humidity | Pressure | Rain* | Wind** | Luminosity | Snow |
|---|---|---|---|---|---|---|---|
| 1787561615 | 14.44° C | 99% | 1059.3 hPa | 0 mm | - | 0 W/m² | - |
| 1787561012 | 14.44° C | 99% | 1059.5 hPa | 0 mm | - | 0 W/m² | - |
| 1787560409 | 14.44° C | 99% | 1059.3 hPa | 0 mm | - | 0 W/m² | - |
| 1787559806 | 13.89° C | 99% | 1059.4 hPa | 0 mm | - | 0 W/m² | - |
| 1787559206 | 13.89° C | 99% | 1059.2 hPa | 0 mm | - | 0 W/m² | - |
| 1787558604 | 13.89° C | 99% | 1059.1 hPa | 0 mm | - | 0 W/m² | - |
| 1787558000 | 14.44° C | 99% | 1059.2 hPa | 0 mm | - | 0 W/m² | - |
| 1787557398 | 15° C | 99% | 1059.1 hPa | 0 mm | - | 0 W/m² | - |
| 1787556796 | 15° C | 99% | 1058.9 hPa | 0 mm | - | 0 W/m² | - |
| 1787556193 | 14.44° C | 99% | 1058.7 hPa | 0 mm | - | 0 W/m² | - |
| 1787555594 | 15° C | 99% | 1059 hPa | 0 mm | - | 0 W/m² | - |
| 1787554991 | 15° C | 99% | 1058.7 hPa | 0 mm | - | 0 W/m² | - |
| 1787554386 | 15° C | 99% | 1058.8 hPa | 0 mm | - | 0 W/m² | - |
| 1787553782 | 15° C | 99% | 1058.8 hPa | 0 mm | - | 0 W/m² | - |
| 1787553180 | 15.56° C | 99% | 1058.9 hPa | 0 mm | - | 0 W/m² | - |
| 1787552579 | 15.56° C | 99% | 1058.7 hPa | 0 mm | - | 0 W/m² | - |
| 1787551974 | 15.56° C | 99% | 1059 hPa | 0 mm | - | 0 W/m² | - |
| 1787551375 | 16.11° C | 99% | 1058.9 hPa | 0 mm | - | 0 W/m² | - |
| 1787550770 | 16.11° C | 99% | 1058.9 hPa | 0 mm | - | 0 W/m² | - |
| 1787550168 | 16.11° C | 99% | 1059 hPa | 0 mm | - | 0 W/m² | - |
| 1787549564 | 16.11° C | 99% | 1059.1 hPa | 0 mm | - | 0 W/m² | - |
| 1787548961 | 16.11° C | 99% | 1059.1 hPa | 0 mm | - | 0 W/m² | - |
| 1787548358 | 16.11° C | 99% | 1059.1 hPa | 0 mm | - | 0 W/m² | - |
| 1787547756 | 16.11° C | 99% | 1059.2 hPa | 0 mm | - | 0 W/m² | - |
| 1787547151 | 16.67° C | 99% | 1059.3 hPa | 0 mm | - | 0 W/m² | - |
* Rain latest hour (hover to see other rain measurements)
** Current wind speed in m/s (hover to see current wind gust speed)